Regional Weather Roundup
Issued by NWS

Home | Current Version | Previous Version | Graphics & Text | Print | Product List | Glossary Off
Versions: 1 2 3 4 5 6 7 8 9 10 11 12 13 14 15 16 17 18 19 20 21 22 23 24 25 26 27 28 29 30 31 32 33 34 35 36 37 38 39 40 41 42 43 44 45 46 47 48 49 50

427
ASUS43 KDMX 251108
RWRIA

WEATHER ROUNDUP FOR IOWA
NATIONAL WEATHER SERVICE DES MOINES IA
600 AM CDT MON JUL 25 2016

NOTE: "FAIR" INDICATES FEW OR NO CLOUDS BELOW 12,000 FEET WITH NO
SIGNIFICANT WEATHER AND/OR OBSTRUCTIONS TO VISIBILITY.

* - THESE STATIONS ARE NOT NWS STATIONS...THUS NOT UNDER NWS
QUALITY CONTROL.  THEY ALSO DO NOT REPORT WEATHER SUCH
AS PRECIPITATION OR FOG.

IAZ001>003-012>014-020>022-031>034-043>046-251200-
   NORTHWEST IOWA

CITY           SKY/WX    TMP DP  RH WIND       PRES   REMARKS
CARROLL *      CLEAR     61  61 100 CALM      30.10R
CHEROKEE *     CLEAR     59  59 100 CALM      30.11R
LE MARS *      CLEAR     59  59 100 CALM      30.11R
SHELDON *      FOG       55  55 100 CALM      30.09R VSB<1/4
SIOUX CITY     CLEAR     63  60  90 CALM      30.11R
SPENCER        CLEAR     57  56  96 SW3       30.10R FOG
STORM LAKE *   CLEAR     63  61  94 NW5       30.11R
$$

IAZ055>058-069>071-079>083-090>094-251200-
   SOUTHWEST IOWA

CITY           SKY/WX    TMP DP  RH WIND       PRES   REMARKS
ATLANTIC *     CLEAR     61  61 100 N6        30.10R
CLARINDA *       N/A     64  64 100 MISG      30.11R
COUNCIL BLFS *   N/A     66  63  88 CALM      30.10R
CRESTON *      CLEAR     66  63  88 NE6       30.11R
HARLAN  *      CLEAR     61  61 100 CALM      30.14R
LAMONI         PTCLDY    65  63  93 N5        30.07R
RED OAK *      MOCLDY    64  63  94 CALM      30.10R
SHENANDOAH *     N/A     64  64 100 CALM      30.10R
$$

IAZ047>049-059>061-072>074-084-251200-
   CENTRAL IOWA

CITY           SKY/WX    TMP DP  RH WIND       PRES   REMARKS
AMES           CLEAR     64  64 100 NW3       30.08R
ANKENY *         N/A    N/A N/A N/A MISG        N/A
BOONE *        CLEAR     66  63  88 N3        30.08S
CHARITON *       N/A    N/A N/A N/A MISG        N/A
DES MOINES     PTCLDY    70  64  81 N8        30.07R
GRINNELL*      PTCLDY    64  62  93 NW3       30.07S
KNOXVILLE *    CLOUDY    68  64  88 N6        30.05S
MARSHALLTOWN   CLEAR     62  62 100 NW5       30.07R
NEWTON *       PTCLDY    66  64  94 N8        30.06S
PELLA *        CLOUDY    65  63  94 N5        30.07R
PERRY *          N/A     63  63  99 NW3       30.09R
$$

IAZ004>006-015-016-023>025-035-036-251200-
   NORTH CENTRAL IOWA

CITY           SKY/WX    TMP DP  RH WIND       PRES   REMARKS
ALGONA *       CLEAR     63  61  94 W3        30.09R
ESTHERVILLE    CLEAR     59  59 100 W3        30.08R
FORT DODGE *   CLEAR     61  61 100 CALM      30.10R
MASON CITY     CLEAR     61  60  97 W3        30.08R
FOREST CITY *  FOG       57  57 100 CALM      30.07R VSB<1/4
IOWA FALLS *     N/A     63  61  94 W3        30.09R
$$

IAZ007>011-017>019-026>030-037>042-050>054-066-251200-
   NORTHEAST IOWA

CITY           SKY/WX    TMP DP  RH WIND       PRES   REMARKS
CEDAR RAPIDS   CLEAR     63  63 100 NW6       30.04R
CHARLES CITY * CLEAR     61  61 100 W5        30.07R FOG
CLINTON *      CLEAR     66  65  96 MISG      30.03R
DECORAH *      CLEAR     63  63 100 CALM      30.04R
DUBUQUE        CLEAR     67  64  90 CALM      30.04R
MONTICELLO *   CLEAR     64  63  94 CALM      30.04R
OELWEIN *      CLEAR     63  63 100 W7        30.07R
WATERLOO       CLEAR     64  62  93 CALM      30.05R
$$

IAZ064-065-067-068-078-251200-
   EAST CENTRAL IOWA

CITY           SKY/WX    TMP DP  RH WIND       PRES   REMARKS
DAVENPORT      CLOUDY    67  65  93 NW6       30.03R
IOWA CITY      PTCLDY    69  64  84 CALM      30.05R
MT. PLEASANT *   N/A     69  69 100 NW3       30.04S
MUSCATINE *    CLEAR     68  66  94 NW5       30.04R
QUAD CITIES    CLOUDY    69  65  86 CALM      30.02R
$$

IAZ062-063-075>077-085>089-095>099-251200-
   SOUTHEAST IOWA

CITY           SKY/WX    TMP DP  RH WIND       PRES   REMARKS
BURLINGTON     CLOUDY    70  68  93 N7        30.02F
FAIRFIELD *    CLOUDY    64  63  94 CALM      30.05R
KEOKUK *       CLOUDY    72  70  94 N6        30.02S
OSKALOOSA *      N/A     62  60  94 CALM      30.06R
CENTERVILLE *    N/A     64  63  94 CALM      30.07S
OTTUMWA        CLOUDY    62  60  93 CALM      30.06R
WASHINGTON *   CLEAR     66  64  94 CALM      30.06R
$$

ABBREVIATIONS USED IN REMARKS
   TC - TEMPERATURES IN CELSIUS
  WCI - WIND CHILL INDEX
   HX - HEAT INDEX
  VSB - VISIBILITY
$$





USA.gov is the U.S. government's official web portal to all federal, state and local government web resources and services.